Location: ????????
(60.5616°N, 46.8254°E)
Time: 07:46:04
(UTC+00:00)

USA 229 DEB - Pass Details

Date: 18 February 2020
Orbit: 988 x 1224 km, 63.4° (Epoch: 26 March)

Event Time Altitude Azimuth Distance (km) Brightness Sun altitude
Rises 16:43:28 0° 209° (SSW) 3,737 6.7 -21.9°
Reaches altitude 10° 16:46:06 10° 203° (SSW) 2,812 6.0 -22.2°
Maximum altitude 16:52:23 48° 132° (SE) 1,362 3.8 -23.0°
Enters shadow 16:53:24 45° 107° (ESE) 1,428 3.9 -23.1°
